• In Uzbekistan
  • List of Countries
  • For 7 days
  • Water Temperature
  • Satellite Maps
  • Weather Map
  • Weather Widgets
  • user-avatar
    Login

    Hourly Weather Petalcingo

    Today, 21 November, Wednesday

    Time Temperature Precipitation Wind Pressure Humidity
    00:00 +14°C° 0.2 mm 1 mps 641 mmHg 94%
    01:00 +13°C° 0 mm 0 mps 640 mmHg 94%
    02:00 +13°C° 0 mm 0 mps 640 mmHg 93%
    03:00 +13°C° 0 mm 0 mps 640 mmHg 93%
    04:00 +13°C° 0 mm 0 mps 640 mmHg 93%
    05:00 +13°C° 0 mm 0 mps 640 mmHg 93%
    06:00 +13°C° 0 mm 0 mps 640 mmHg 93%
    07:00 +14°C° 0 mm 0 mps 641 mmHg 89%
    08:00 +16°C° 0 mm 0 mps 642 mmHg 85%
    09:00 +19°C° 0 mm 1 mps 643 mmHg 81%
    10:00 +20°C° 0.3 mm 1 mps 643 mmHg 79%
    11:00 +21°C° 0.3 mm 1 mps 643 mmHg 76%
    12:00 +22°C° 0.3 mm 1 mps 643 mmHg 74%
    13:00 +21°C° 0.6 mm 1 mps 642 mmHg 76%
    14:00 +21°C° 0.6 mm 1 mps 641 mmHg 79%
    15:00 +21°C° 0.6 mm 1 mps 641 mmHg 81%
    16:00 +19°C° 0.6 mm 1 mps 640 mmHg 86%
    17:00 +18°C° 0.6 mm 1 mps 640 mmHg 91%
    18:00 +16°C° 0.6 mm 1 mps 640 mmHg 96%
    19:00 +15°C° 0.2 mm 1 mps 640 mmHg 96%
    20:00 +15°C° 0.2 mm 1 mps 641 mmHg 96%
    21:00 +15°C° 0.2 mm 1 mps 641 mmHg 96%
    22:00 +14°C° 0 mm 1 mps 641 mmHg 95%
    23:00 +14°C° 0 mm 1 mps 641 mmHg 94%

    Tomorrow, 22 November, Thursday

    Time Temperature Precipitation Wind Pressure Humidity
    00:00 +14°C° 0 mm 1 mps 641 mmHg 93%
    01:00 +14°C° 0 mm 1 mps 640 mmHg 93%
    02:00 +13°C° 0 mm 1 mps 640 mmHg 93%
    03:00 +13°C° 0 mm 1 mps 639 mmHg 92%
    04:00 +13°C° 0 mm 1 mps 639 mmHg 92%
    05:00 +13°C° 0 mm 1 mps 639 mmHg 91%
    06:00 +13°C° 0 mm 1 mps 639 mmHg 91%
    07:00 +15°C° 0 mm 1 mps 640 mmHg 84%
    08:00 +18°C° 0 mm 1 mps 641 mmHg 77%
    09:00 +19°C° 0 mm 1 mps 642 mmHg 71%
    10:00 +20°C° 0 mm 1 mps 642 mmHg 69%
    11:00 +20°C° 0 mm 2 mps 642 mmHg 66%
    12:00 +21°C° 0 mm 2 mps 643 mmHg 64%
    13:00 +21°C° 0.5 mm 2 mps 642 mmHg 68%
    14:00 +21°C° 0.5 mm 2 mps 641 mmHg 72%
    15:00 +21°C° 0.5 mm 1 mps 640 mmHg 76%
    16:00 +20°C° 0.6 mm 1 mps 640 mmHg 82%
    17:00 +18°C° 0.6 mm 1 mps 639 mmHg 89%
    18:00 +16°C° 0.6 mm 1 mps 639 mmHg 95%
    19:00 +16°C° 0.2 mm 1 mps 640 mmHg 95%
    20:00 +15°C° 0.2 mm 1 mps 640 mmHg 95%
    21:00 +15°C° 0.2 mm 1 mps 640 mmHg 96%
    22:00 +14°C° 0.1 mm 1 mps 640 mmHg 95%
    23:00 +14°C° 0.1 mm 1 mps 640 mmHg 94%

    Day after tomorrow, 23 November, Friday

    Time Temperature Precipitation Wind Pressure Humidity
    00:00 +14°C° 0.1 mm 1 mps 640 mmHg 94%
    01:00 +14°C° 0 mm 1 mps 639 mmHg 93%
    02:00 +14°C° 0 mm 1 mps 639 mmHg 93%
    03:00 +13°C° 0 mm 1 mps 638 mmHg 92%
    04:00 +13°C° 0 mm 1 mps 638 mmHg 92%
    05:00 +13°C° 0 mm 1 mps 638 mmHg 91%
    06:00 +13°C° 0 mm 1 mps 638 mmHg 91%
    07:00 +15°C° 0 mm 1 mps 639 mmHg 84%
    08:00 +18°C° 0 mm 1 mps 640 mmHg 76%
    09:00 +18°C° 0 mm 0 mps 641 mmHg 69%
    10:00 +21°C° 0 mm 1 mps 641 mmHg 64%
    11:00 +23°C° 0 mm 1 mps 641 mmHg 60%
    12:00 +24°C° 0 mm 2 mps 641 mmHg 56%
    13:00 +24°C° 0 mm 2 mps 640 mmHg 58%
    14:00 +23°C° 0 mm 2 mps 639 mmHg 61%
    15:00 +23°C° 0 mm 2 mps 638 mmHg 63%
    16:00 +21°C° 0 mm 1 mps 638 mmHg 73%
    17:00 +19°C° 0 mm 1 mps 637 mmHg 82%
    18:00 +15°C° 0 mm 0 mps 637 mmHg 92%
    19:00 +16°C° 0 mm 1 mps 637 mmHg 91%
    20:00 +15°C° 0 mm 1 mps 638 mmHg 91%
    21:00 +15°C° 0 mm 1 mps 638 mmHg 91%
    22:00 +15°C° 0 mm 1 mps 638 mmHg 89%
    23:00 +14°C° 0 mm 1 mps 637 mmHg 87%

    24 November, Saturday

    Time Temperature Precipitation Wind Pressure Humidity
    00:00 +14°C° 0 mm 1 mps 637 mmHg 85%
    01:00 +14°C° 0 mm 1 mps 637 mmHg 84%
    02:00 +13°C° 0 mm 1 mps 636 mmHg 83%
    03:00 +13°C° 0 mm 1 mps 636 mmHg 82%
    04:00 +13°C° 0 mm 1 mps 636 mmHg 81%
    05:00 +13°C° 0 mm 1 mps 636 mmHg 80%
    06:00 +13°C° 0 mm 1 mps 636 mmHg 79%
    07:00 +15°C° 0 mm 1 mps 637 mmHg 72%
    08:00 +17°C° 0 mm 0 mps 639 mmHg 66%
    09:00 +19°C° 0 mm 0 mps 640 mmHg 60%
    10:00 +22°C° 0 mm 1 mps 640 mmHg 58%
    11:00 +23°C° 0 mm 1 mps 640 mmHg 56%
    12:00 +24°C° 0 mm 1 mps 639 mmHg 55%
    13:00 +24°C° 0 mm 1 mps 639 mmHg 57%
    14:00 +24°C° 0 mm 1 mps 638 mmHg 60%
    15:00 +24°C° 0 mm 1 mps 637 mmHg 62%
    16:00 +22°C° 0 mm 1 mps 637 mmHg 72%
    17:00 +20°C° 0 mm 1 mps 637 mmHg 82%
    18:00 +16°C° 0 mm 0 mps 636 mmHg 92%
    19:00 +15°C° 0 mm 0 mps 636 mmHg 92%
    20:00 +16°C° 0 mm 1 mps 637 mmHg 92%
    21:00 +16°C° 0 mm 1 mps 637 mmHg 92%
    22:00 +15°C° 0 mm 1 mps 637 mmHg 90%
    23:00 +15°C° 0 mm 1 mps 637 mmHg 88%

    25 November, Sunday

    Time Temperature Precipitation Wind Pressure Humidity
    00:00 +15°C° 0 mm 1 mps 636 mmHg 87%
    01:00 +15°C° 0 mm 1 mps 636 mmHg 86%
    02:00 +15°C° 0 mm 1 mps 636 mmHg 85%
    03:00 +14°C° 0 mm 1 mps 636 mmHg 85%
    04:00 +14°C° 0 mm 1 mps 636 mmHg 84%
    05:00 +14°C° 0 mm 1 mps 636 mmHg 84%
    06:00 +14°C° 0 mm 1 mps 636 mmHg 83%
    07:00 +16°C° 0 mm 1 mps 637 mmHg 75%
    08:00 +18°C° 0 mm 0 mps 639 mmHg 68%
    09:00 +20°C° 0 mm 0 mps 640 mmHg 60%
    10:00 +22°C° 0 mm 0 mps 640 mmHg 57%
    11:00 +25°C° 0 mm 1 mps 640 mmHg 54%
    12:00 +26°C° 0 mm 1 mps 640 mmHg 51%
    13:00 +26°C° 0 mm 1 mps 639 mmHg 53%
    14:00 +26°C° 0 mm 1 mps 638 mmHg 55%
    15:00 +26°C° 0 mm 1 mps 638 mmHg 58%
    16:00 +23°C° 0 mm 1 mps 637 mmHg 68%
    17:00 +21°C° 0 mm 1 mps 637 mmHg 79%
    18:00 +17°C° 0 mm 0 mps 637 mmHg 89%
    19:00 +17°C° 0 mm 0 mps 637 mmHg 89%
    20:00 +18°C° 0 mm 1 mps 638 mmHg 90%
    21:00 +18°C° 0 mm 1 mps 638 mmHg 90%
    22:00 +18°C° 0 mm 1 mps 638 mmHg 90%
    23:00 +16°C° 0 mm 1 mps 638 mmHg 89%

    26 November, Monday

    Time Temperature Precipitation Wind Pressure Humidity
    00:00 +16°C° 0 mm 1 mps 638 mmHg 89%
    01:00 +16°C° 0.2 mm 1 mps 638 mmHg 91%
    02:00 +15°C° 0.2 mm 1 mps 638 mmHg 92%
    03:00 +15°C° 0.2 mm 1 mps 638 mmHg 94%
    04:00 +15°C° 0.1 mm 1 mps 638 mmHg 95%
    05:00 +15°C° 0.1 mm 1 mps 639 mmHg 95%
    06:00 +15°C° 0.1 mm 1 mps 639 mmHg 96%
    07:00 +16°C° 0.1 mm 1 mps 640 mmHg 91%
    08:00 +18°C° 0.1 mm 1 mps 641 mmHg 85%
    09:00 +20°C° 0.1 mm 1 mps 642 mmHg 80%
    10:00 +21°C° 0.3 mm 1 mps 642 mmHg 76%
    11:00 +20°C° 0.3 mm 2 mps 641 mmHg 73%
    12:00 +21°C° 0.3 mm 2 mps 641 mmHg 69%
    13:00 +21°C° 0.7 mm 2 mps 641 mmHg 72%
    14:00 +20°C° 0.7 mm 2 mps 640 mmHg 76%
    15:00 +19°C° 0.7 mm 2 mps 639 mmHg 79%
    16:00 +18°C° 0.4 mm 2 mps 639 mmHg 85%
    17:00 +16°C° 0.4 mm 2 mps 639 mmHg 91%
    18:00 +15°C° 0.4 mm 1 mps 639 mmHg 96%
    19:00 +15°C° 0.1 mm 1 mps 639 mmHg 97%
    20:00 +14°C° 0.1 mm 1 mps 640 mmHg 97%
    21:00 +14°C° 0.1 mm 1 mps 640 mmHg 97%
    22:00 +14°C° 0 mm 1 mps 640 mmHg 96%
    23:00 +13°C° 0 mm 1 mps 639 mmHg 96%
    Show more